Location: Augsburg
(48.3836°N, 10.8929°E)
Time: 10:18:16
(UTC+01:00)

Envisat - Visible Passes

Search period start: 20 November 2017 00:00
Search period end: 30 November 2017 00:00
Orbit: 764 x 766 km, 98.2° (Epoch: 19 November)

Date Brightness Start Highest point End Pass type
(mag) Time Alt. Az. Time Alt. Az. Time Alt. Az.
20 Nov 5.0 19:12:50 15° N 19:12:50 15° N 19:13:49 10° N visible
21 Nov 5.0 18:35:46 13° NNE 18:35:46 13° NNE 18:36:29 10° NNE visible
21 Nov 5.6 20:15:58 12° NNW 20:15:58 12° NNW 20:16:22 10° NNW visible
22 Nov 5.3 19:38:55 14° N 19:38:55 14° N 19:39:38 10° N visible
23 Nov 5.1 19:01:51 14° N 19:01:51 14° N 19:02:34 10° N visible
24 Nov 5.1 18:24:47 11° NNE 18:24:47 11° NNE 18:25:04 10° NNE visible
24 Nov 5.6 20:04:59 12° NNW 20:04:59 12° NNW 20:05:17 10° NNW visible
25 Nov 5.3 19:27:55 13° N 19:27:55 13° N 19:28:26 10° N visible
26 Nov 5.2 18:50:50 12° N 18:50:50 12° N 18:51:17 10° N visible
27 Nov 5.6 19:53:57 11° NNW 19:53:57 11° NNW 19:54:09 10° NNW visible
28 Nov 5.3 19:16:53 12° N 19:16:53 12° N 19:17:14 10° N visible
29 Nov 5.2 18:39:48 11° N 18:39:48 11° N 18:39:57 10° N visible
